Temp
11 12 12 12 12 15 13 13 13 13 12 12 14 14 13 12 13 13 13 12 11 11 11 12 12 13 12 10 11 11 11 11
11 10 12 11 12 11 11 11 12 13 11 12 13 13 13 13 12 13 12 12 12 11 11 11 12 13 12 9 10 10 11 11
13 11 10 10 12 11 11 11 11 12 11 11 12 12 12 12 13 13 12 12 12 12 11 11 12 12 12 10 9 9 11 11
13 12 11 10 11 11 12 11 11 10 11 11 11 11 11 10 13 14 13 12 12 12 12 11 11 12 12 11 9 8 9 10
14 13 12 12 11 10 11 10 10 9 11 11 10 11 10 12 12 12 11 12 12 12 11 12 12 11 11 11 10 10 10 10
15 14 13 12 12 11 10 9 9 10 10 10 10 11 10 10 10 10 11 11 10 10 11 12 11 11 10 10 11 11 11 9
16 15 14 13 12 11 10 9 8 9 9 10 10 11 11 10 10 10 9 10 10 11 11 10 11 10 10 10 10 10 10 10
17 15 14 14 13 12 10 9 9 8 8 9 10 11 10 9 9 10 10 10 10 10 10 10 9 10 10 10 10 10 9 9
17 16 15 14 13 12 11 10 9 8 7 8 9 10 10 10 9 9 9 10 10 10 9 9 10 10 10 9 9 9 9 8
17 16 15 14 13 12 11 10 10 8 7 7 8 9 9 8 8 8 9 9 9 8 9 9 9 9 9 9 9 9 8 8
18 17 15 14 13 12 11 11 10 8 7 7 7 7 7 6 7 6 8 8 8 9 9 8 9 9 9 9 8 8 8 7
18 17 15 14 13 12 11 10 10 8 7 7 7 6 6 6 6 6 7 8 8 9 8 8 8 8 8 8 8 8 7 7
18 17 15 14 12 11 10 10 10 8 7 6 6 6 6 6 6 7 8 8 8 7 7 8 8 8 8 8 8 7 7 7
18 16 15 13 12 11 10 10 9 8 7 6 6 5 6 5 6 6 7 7 7 7 7 8 8 8 7 7 7 7 7 6
18 16 15 13 12 11 10 9 9 8 7 6 6 5 5 5 6 7 7 6 7 7 7 7 7 7 7 7 7 6 6 6
18 16 15 13 12 11 10 9 9 8 7 6 5 5 5 5 6 6 7 7 7 7 6 7 7 7 7 7 6 6 6 5
18 16 15 13 12 11 10 9 8 8 7 6 5 5 5 6 6 7 7 6 6 5 6 7 7 6 6 6 6 6 5 5
18 16 15 13 12 11 10 9 8 7 7 6 6 5 5 5 6 6 6 6 5 5 6 6 6 6 6 6 6 5 5 5
18 17 15 14 12 11 10 9 8 7 6 6 6 5 5 5 6 6 6 6 6 6 6 5 5 6 6 6 5 5 5 5
Height
1517 1519 1522 1525 1527 1529 1534 1541 1545 1544 1547 1549 1549 1551 1553 1552 1551 1553 1553 1553 1555 1555 1555 1555 1554 1553 1555 1556 1556 1557 1557 1558
1515 1518 1520 1524 1527 1530 1537 1540 1542 1544 1547 1549 1548 1550 1552 1553 1551 1551 1553 1554 1555 1556 1555 1556 1555 1554 1555 1557 1558 1559 1557 1557
1513 1517 1520 1523 1525 1530 1532 1537 1539 1543 1546 1547 1544 1549 1550 1552 1551 1549 1553 1555 1556 1557 1556 1556 1555 1555 1553 1558 1559 1561 1556 1557
1509 1514 1518 1521 1523 1526 1530 1534 1537 1543 1542 1544 1545 1548 1549 1551 1548 1548 1554 1556 1558 1558 1558 1557 1555 1555 1556 1558 1560 1560 1557 1558
1507 1511 1515 1519 1522 1525 1529 1533 1537 1539 1539 1542 1546 1547 1547 1546 1548 1548 1553 1554 1559 1560 1559 1558 1557 1558 1558 1558 1560 1560 1559 1559
1501 1506 1512 1517 1521 1523 1528 1531 1534 1537 1538 1541 1543 1545 1547 1547 1549 1552 1552 1552 1556 1557 1558 1560 1559 1559 1560 1561 1561 1560 1561 1562
1498 1505 1510 1514 1519 1522 1526 1529 1533 1535 1537 1539 1542 1544 1546 1547 1550 1551 1553 1556 1557 1557 1559 1562 1560 1561 1561 1562 1563 1562 1561 1562
1493 1499 1505 1510 1514 1519 1523 1527 1531 1533 1535 1538 1540 1542 1544 1546 1549 1551 1553 1555 1556 1558 1561 1561 1562 1563 1564 1563 1565 1564 1564 1563
1487 1494 1501 1506 1511 1515 1520 1525 1528 1531 1534 1536 1538 1540 1542 1545 1548 1551 1552 1556 1558 1559 1560 1562 1563 1564 1565 1566 1566 1565 1564 1565
1480 1489 1496 1502 1507 1512 1518 1522 1526 1529 1531 1534 1536 1539 1541 1544 1547 1550 1552 1555 1558 1559 1560 1562 1564 1564 1565 1567 1567 1567 1567 1566
1473 1483 1491 1499 1504 1511 1516 1520 1522 1526 1529 1532 1534 1537 1541 1543 1546 1549 1551 1555 1557 1559 1560 1563 1564 1565 1565 1567 1568 1568 1567 1567
1466 1476 1485 1495 1501 1506 1512 1517 1519 1522 1526 1529 1532 1535 1539 1541 1544 1547 1550 1553 1556 1558 1561 1563 1565 1566 1567 1567 1568 1568 1567 1567
1460 1471 1480 1488 1496 1502 1508 1514 1516 1519 1523 1527 1530 1533 1536 1540 1543 1546 1549 1552 1556 1558 1560 1562 1565 1566 1566 1567 1567 1568 1567 1568
1457 1466 1475 1483 1491 1497 1504 1510 1512 1515 1519 1523 1527 1530 1533 1537 1541 1544 1548 1552 1555 1558 1560 1562 1564 1565 1566 1566 1568 1567 1568 1568
1452 1462 1470 1478 1486 1492 1499 1506 1509 1512 1517 1520 1524 1527 1531 1535 1539 1543 1547 1551 1554 1556 1559 1561 1562 1564 1565 1566 1567 1568 1568 1568
1449 1458 1467 1474 1481 1488 1494 1501 1505 1509 1513 1517 1521 1525 1529 1533 1537 1541 1545 1549 1552 1555 1557 1559 1561 1563 1565 1566 1567 1568 1568 1567
1447 1455 1463 1470 1476 1483 1489 1495 1500 1505 1510 1514 1518 1522 1526 1530 1535 1539 1543 1546 1550 1553 1555 1558 1560 1562 1564 1565 1567 1567 1566 1566
1443 1451 1458 1465 1471 1478 1484 1491 1496 1501 1506 1511 1514 1519 1523 1527 1532 1536 1539 1544 1547 1550 1553 1556 1558 1561 1563 1565 1566 1566 1565 1565
1440 1446 1454 1461 1469 1476 1482 1488 1492 1497 1502 1506 1510 1515 1520 1524 1528 1532 1536 1540 1544 1547 1550 1554 1556 1559 1561 1563 1564 1564 1563 1563
Wind_Speed
22 25 28 22 17 23 20 18 16 17 15 11 9 5 1 1 4 4 3 4 6 5 7 5 5 7 10 10 12 10 11 11
20 21 22 19 16 18 17 16 16 15 15 11 10 5 3 3 4 4 4 3 3 5 7 7 8 9 11 14 10 2 5 11
23 22 21 19 20 21 20 18 17 17 14 11 8 4 3 3 4 3 2 3 4 5 8 8 9 10 11 12 12 10 14 5
26 25 24 20 19 21 19 18 18 19 18 14 11 10 6 6 4 2 3 4 5 6 7 9 10 11 12 11 12 11 13 15
29 28 27 25 21 18 18 19 20 17 11 11 11 12 14 13 11 12 11 10 8 7 8 8 9 9 10 11 11 10 9 12
31 30 28 25 21 20 17 18 19 17 14 11 14 11 9 5 8 12 14 14 12 11 9 8 10 11 11 11 11 11 12 13
30 28 27 25 25 23 24 21 19 17 16 15 14 13 12 12 12 13 13 11 11 10 9 9 10 10 11 11 11 11 12 11
33 31 29 28 28 29 27 24 22 18 18 18 16 15 12 12 14 15 15 13 12 11 10 10 10 10 10 10 10 11 12 12
33 32 31 30 30 31 28 26 25 22 19 18 16 13 13 14 14 15 15 13 12 12 11 10 10 9 9 9 9 10 11 11
36 33 32 31 32 29 30 28 25 22 20 18 16 15 15 17 16 16 15 15 14 13 11 10 9 9 9 9 8 9 9 9
36 35 34 31 31 29 29 28 27 25 21 20 18 18 18 18 18 18 16 16 14 12 11 10 9 8 8 7 8 8 9 9
37 36 35 32 30 31 31 29 27 26 24 20 19 21 21 21 20 18 18 16 15 13 12 10 9 8 8 7 7 7 7 8
39 36 37 35 33 31 32 30 30 28 25 23 22 23 23 22 22 19 18 17 16 13 12 11 9 8 7 6 5 5 6 7
38 37 38 37 35 33 32 31 31 29 28 25 25 24 24 23 22 21 19 18 16 14 13 11 9 7 6 5 4 4 4 6
37 37 38 38 36 35 33 33 32 31 28 28 27 27 26 25 23 22 21 19 17 15 13 11 9 7 5 4 3 3 3 5
33 36 38 38 37 36 34 34 34 33 31 30 29 28 27 27 26 23 21 19 17 15 14 12 10 8 6 3 2 1 2 5
31 35 36 38 39 38 37 36 35 34 33 31 29 30 30 27 25 24 22 21 18 16 14 12 10 9 6 3 2 1 1 3
34 37 39 40 40 39 38 37 36 36 35 32 30 30 28 28 26 26 24 22 20 19 15 14 13 10 8 5 3 3 2 4
32 35 37 38 38 38 37 36 37 36 36 33 30 31 31 29 28 27 25 24 22 20 17 15 13 10 9 6 4 3 3 4
Wind_Direction
178 178 172 179 186 198 189 179 175 160 154 151 131 135 137 105 45 59 50 89 92 59 77 83 92 90 94 107 137 142 147 132
183 185 186 195 190 189 193 186 189 176 159 149 121 113 81 38 72 51 55 79 120 115 107 92 87 93 98 90 69 99 137 147
179 183 185 199 197 200 203 198 191 189 172 160 151 147 138 99 56 68 85 112 129 133 116 109 100 93 96 107 91 36 72 106
176 179 180 185 186 185 191 193 198 206 218 221 210 199 177 157 160 121 152 138 130 127 124 119 100 96 97 105 112 100 67 65
178 180 182 183 189 191 185 183 181 191 189 165 171 183 180 182 170 151 156 157 149 137 120 105 100 93 91 97 101 91 90 84
182 185 184 182 188 197 193 195 190 187 190 178 183 197 196 186 177 165 160 149 140 131 129 121 108 102 94 89 90 86 82 82
184 186 184 183 185 191 188 187 186 188 187 188 202 205 205 194 174 161 151 148 145 130 124 122 116 107 102 93 85 84 83 80
184 180 183 184 183 185 186 181 184 188 192 194 200 201 193 180 177 167 163 158 148 143 140 126 118 109 104 102 97 87 84 77
181 183 185 184 183 186 183 179 185 184 191 191 195 191 187 180 175 170 165 166 159 148 140 129 123 117 110 98 93 86 78 73
179 185 186 184 181 184 182 180 186 183 185 189 187 178 178 167 175 167 175 172 162 154 145 137 130 122 112 103 89 81 78 69
179 184 183 182 186 186 186 182 187 182 187 193 186 171 168 179 178 176 179 170 170 161 149 144 136 128 119 111 97 84 71 59
182 179 179 182 186 188 187 182 187 185 190 189 183 178 177 187 175 182 179 178 173 168 164 155 147 137 127 114 98 80 66 53
175 174 177 178 184 188 189 183 188 191 193 185 187 184 189 183 180 185 183 178 175 170 166 162 157 146 132 118 91 81 59 45
169 171 176 177 183 184 187 184 190 192 192 187 189 188 187 180 184 187 180 178 178 176 174 172 167 156 142 122 102 72 51 37
169 173 177 178 181 182 187 185 189 192 188 190 191 189 185 183 187 186 183 181 182 182 181 180 172 167 151 140 107 73 37 21
173 177 179 178 181 183 186 186 188 191 186 192 193 190 186 188 189 185 185 185 186 187 185 185 182 177 175 157 135 87 18 12
180 179 181 181 183 185 185 185 187 190 188 192 196 191 190 191 189 187 188 187 188 186 192 192 187 195 181 182 220 261 344 355
183 184 186 185 187 186 185 184 186 189 190 191 198 193 187 190 191 190 192 189 190 192 196 199 198 199 196 201 221 266 289 329
187 186 187 187 187 187 186 186 186 187 188 189 196 191 187 194 193 192 194 193 196 197 198 202 207 201 204 210 226 259 287 320